Time,TemperatureF,DewpointF,PressureIn,WindDirection,WindDirectionDegrees,WindSpeedMPH,WindSpeedGustMPH,Humidity,HourlyPrecipIn,Conditions,Clouds,dailyrainin,SoftwareType,DateUTC
2013-02-25 08:32:00,38.0,36.0,30.22,NNW,346,0.0,2.0,92,0.00,,,0.00,,2013-02-25 16:32:00,
2013-02-25 08:42:00,38.0,36.0,30.22,NNW,346,0.0,2.0,92,0.00,,,0.00,,2013-02-25 16:42:00,
2013-02-25 08:52:00,42.0,38.0,30.22,SSE,164,2.0,6.0,85,0.00,,,0.00,,2013-02-25 16:52:00,
2013-02-25 09:01:00,43.0,37.0,30.22,SSE,164,0.0,2.0,80,0.00,,,0.00,,2013-02-25 17:01:00,
2013-02-25 09:11:00,43.0,37.0,30.22,SSE,164,0.0,2.0,80,0.00,,,0.00,,2013-02-25 17:11:00,
2013-02-25 09:21:00,45.0,38.0,30.22,SSE,162,1.0,2.0,75,0.00,,,0.00,,2013-02-25 17:21:00,
2013-02-25 09:31:00,46.0,37.0,30.21,SE,140,1.0,3.0,71,0.00,,,0.00,,2013-02-25 17:31:00,
2013-02-25 09:41:00,46.0,37.0,30.21,SE,140,1.0,3.0,71,0.00,,,0.00,,2013-02-25 17:41:00,
2013-02-25 09:52:00,47.0,37.0,30.21,SSW,206,1.0,5.0,69,0.00,,,0.00,,2013-02-25 17:52:00,
2013-02-25 10:01:00,48.0,38.0,30.21,WNW,285,2.0,4.0,67,0.00,,,0.00,,2013-02-25 18:01:00,
2013-02-25 10:12:00,48.0,38.0,30.21,WNW,285,2.0,4.0,67,0.00,,,0.00,,2013-02-25 18:12:00,
2013-02-25 10:21:00,49.0,39.0,30.21,WSW,253,2.0,6.0,67,0.00,,,0.00,,2013-02-25 18:21:00,
2013-02-25 10:32:00,51.0,39.0,30.21,NNE,14,2.0,5.0,64,0.00,,,0.00,,2013-02-25 18:32:00,
2013-02-25 10:41:00,51.0,39.0,30.21,NNE,14,2.0,5.0,64,0.00,,,0.00,,2013-02-25 18:41:00,
2013-02-25 10:51:00,53.0,40.0,30.21,SW,234,2.0,5.0,61,0.00,,,0.00,,2013-02-25 18:51:00,
2013-02-25 11:01:00,54.0,40.0,30.21,North,360,3.0,6.0,59,0.00,,,0.00,,2013-02-25 19:01:00,
2013-02-25 11:11:00,54.0,40.0,30.21,North,360,3.0,6.0,59,0.00,,,0.00,,2013-02-25 19:11:00,
2013-02-25 11:21:00,55.0,41.0,30.20,WSW,246,2.0,7.0,58,0.00,,,0.00,,2013-02-25 19:21:00,
2013-02-25 11:31:00,56.0,40.0,30.20,WSW,252,3.0,7.0,55,0.00,,,0.00,,2013-02-25 19:31:00,
2013-02-25 11:41:00,56.0,40.0,30.20,WSW,252,3.0,7.0,55,0.00,,,0.00,,2013-02-25 19:41:00,
2013-02-25 11:52:00,58.0,42.0,30.19,West,273,1.0,6.0,56,0.00,,,0.00,,2013-02-25 19:52:00,
2013-02-25 12:01:00,59.0,40.0,30.19,North,5,2.0,6.0,50,0.00,,,0.00,,2013-02-25 20:01:00,
2013-02-25 12:11:00,59.0,40.0,30.19,North,5,2.0,6.0,50,0.00,,,0.00,,2013-02-25 20:11:00,
2013-02-25 12:21:00,61.0,42.0,30.19,North,9,1.0,4.0,49,0.00,,,0.00,,2013-02-25 20:21:00,
2013-02-25 12:31:00,60.0,40.0,30.19,SW,223,3.0,8.0,47,0.00,,,0.00,,2013-02-25 20:31:00,
2013-02-25 12:41:00,60.0,40.0,30.19,SW,223,3.0,8.0,47,0.00,,,0.00,,2013-02-25 20:41:00,
2013-02-25 12:52:00,61.0,41.0,30.18,West,271,1.0,6.0,47,0.00,,,0.00,,2013-02-25 20:52:00,
2013-02-25 13:01:00,62.0,40.0,30.18,NNW,336,2.0,4.0,44,0.00,,,0.00,,2013-02-25 21:01:00,
2013-02-25 13:11:00,62.0,40.0,30.18,NNW,336,2.0,4.0,44,0.00,,,0.00,,2013-02-25 21:11:00,
2013-02-25 13:21:00,62.0,38.0,30.17,West,267,2.0,6.0,41,0.00,,,0.00,,2013-02-25 21:21:00,
2013-02-25 13:31:00,63.0,38.0,30.17,SSE,155,3.0,8.0,39,0.00,,,0.00,,2013-02-25 21:31:00,
2013-02-25 13:41:00,63.0,38.0,30.17,SSE,155,3.0,8.0,39,0.00,,,0.00,,2013-02-25 21:41:00,
2013-02-25 13:51:00,64.0,37.0,30.16,NW,325,2.0,4.0,37,0.00,,,0.00,,2013-02-25 21:51:00,
2013-02-25 14:01:00,65.0,37.0,30.16,WNW,291,2.0,4.0,35,0.00,,,0.00,,2013-02-25 22:01:00,
2013-02-25 14:11:00,65.0,37.0,30.16,WNW,291,2.0,4.0,35,0.00,,,0.00,,2013-02-25 22:11:00,
2013-02-25 14:21:00,65.0,33.0,30.16,South,190,3.0,4.0,30,0.00,,,0.00,,2013-02-25 22:21:00,
2013-02-25 14:31:00,65.0,29.0,30.16,South,176,2.0,5.0,26,0.00,,,0.00,,2013-02-25 22:31:00,
2013-02-25 14:41:00,65.0,29.0,30.16,South,176,2.0,5.0,26,0.00,,,0.00,,2013-02-25 22:41:00,
2013-02-25 14:51:00,65.0,27.0,30.15,SSW,195,3.0,6.0,24,0.00,,,0.00,,2013-02-25 22:51:00,
2013-02-25 15:01:00,67.0,26.0,30.15,SSE,148,2.0,4.0,21,0.00,,,0.00,,2013-02-25 23:01:00,
2013-02-25 15:11:00,67.0,26.0,30.15,SSE,148,2.0,4.0,21,0.00,,,0.00,,2013-02-25 23:11:00,
2013-02-25 15:21:00,67.0,28.0,30.15,South,186,2.0,5.0,23,0.00,,,0.00,,2013-02-25 23:21:00,
2013-02-25 15:31:00,67.0,26.0,30.15,North,11,2.0,5.0,21,0.00,,,0.00,,2013-02-25 23:31:00,
2013-02-25 15:41:00,67.0,26.0,30.15,North,11,2.0,5.0,21,0.00,,,0.00,,2013-02-25 23:41:00,
2013-02-25 15:51:00,67.0,27.0,30.14,South,180,2.0,3.0,22,0.00,,,0.00,,2013-02-25 23:51:00,
2013-02-25 16:01:00,67.0,27.0,30.14,South,182,1.0,4.0,22,0.00,,,0.00,,2013-02-26 00:01:00,
2013-02-25 16:11:00,67.0,27.0,30.14,South,182,1.0,4.0,22,0.00,,,0.00,,2013-02-26 00:11:00,
2013-02-25 16:21:00,67.0,29.0,30.13,SSE,163,1.0,4.0,24,0.00,,,0.00,,2013-02-26 00:21:00,
2013-02-25 16:32:00,67.0,29.0,30.13,SSE,163,1.0,4.0,24,0.00,,,0.00,,2013-02-26 00:32:00,
2013-02-25 16:41:00,67.0,29.0,30.13,SSE,163,1.0,4.0,24,0.00,,,0.00,,2013-02-26 00:41:00,
2013-02-25 16:51:00,67.0,29.0,30.13,SSE,163,1.0,4.0,24,0.00,,,0.00,,2013-02-26 00:51:00,
2013-02-25 19:52:00,46.0,33.0,30.16,ENE,59,0.0,0.0,61,0.00,,,0.00,,2013-02-26 03:52:00,
2013-02-25 20:01:00,46.0,35.0,30.16,ENE,61,0.0,1.0,65,0.00,,,0.00,,2013-02-26 04:01:00,
2013-02-25 20:11:00,46.0,35.0,30.16,ENE,61,0.0,1.0,65,0.00,,,0.00,,2013-02-26 04:11:00,
2013-02-25 20:21:00,45.0,35.0,30.17,ENE,63,0.0,2.0,67,0.00,,,0.00,,2013-02-26 04:21:00,
2013-02-25 20:31:00,45.0,35.0,30.17,ENE,63,0.0,2.0,67,0.00,,,0.00,,2013-02-26 04:31:00,
2013-02-25 20:42:00,45.0,35.0,30.17,ENE,63,0.0,2.0,67,0.00,,,0.00,,2013-02-26 04:42:00,
2013-02-25 20:51:00,45.0,35.0,30.17,ENE,63,0.0,2.0,67,0.00,,,0.00,,2013-02-26 04:51:00,